This is the latest recevied weather packets stored in our database for station/object DL6MAA-11. If no packets are shown the sender has not sent any weather packets the latest 10 day(s).
| Time | Temp. | Humidity | Pressure | Rain* | Wind** | Luminosity | Snow |
|---|---|---|---|---|---|---|---|
| 1778148703 | 12.22° C | 67% | 1011.4 hPa | 0 mm | - | 163 W/m² | - |
| 1778148412 | 12.78° C | 69% | 1011.4 hPa | 0 mm | - | 190 W/m² | - |
| 1778148120 | 12.78° C | 70% | 1011.4 hPa | 0 mm | - | 520 W/m² | - |
| 1778147816 | 12.22° C | 72% | 1011.6 hPa | 0 mm | - | 448 W/m² | - |
| 1778147517 | 11.67° C | 76% | 1011.6 hPa | 0 mm | - | 250 W/m² | - |
| 1778147217 | 11.67° C | 73% | 1011.6 hPa | 0 mm | - | 207 W/m² | - |
| 1778146922 | 11.67° C | 73% | 1011.8 hPa | 0 mm | - | 241 W/m² | - |
| 1778146607 | 11.11° C | 76% | 1011.8 hPa | 0 mm | - | 281 W/m² | - |
| 1778146309 | 10.56° C | 75% | 1011.8 hPa | 0 mm | - | 221 W/m² | - |
| 1778146018 | 10.56° C | 75% | 1011.7 hPa | 0 mm | - | 199 W/m² | - |
| 1778145716 | 10.56° C | 76% | 1011.7 hPa | 0 mm | - | 176 W/m² | - |
| 1778145419 | 10.56° C | 76% | 1011.7 hPa | 0 mm | - | 193 W/m² | - |
| 1778145109 | 10.56° C | 77% | 1011.7 hPa | 0 mm | - | 190 W/m² | - |
| 1778144821 | 10° C | 77% | 1011.7 hPa | 0 mm | - | 172 W/m² | - |
| 1778144523 | 10.56° C | 76% | 1011.7 hPa | 0 mm | - | 158 W/m² | - |
| 1778144204 | 10.56° C | 77% | 1011.5 hPa | 0 mm | - | 167 W/m² | - |
| 1778143918 | 10.56° C | 77% | 1011.5 hPa | 0 mm | - | 190 W/m² | - |
| 1778143606 | 10.56° C | 76% | 1011.5 hPa | 0 mm | - | 200 W/m² | - |
| 1778143307 | 10.56° C | 76% | 1011.4 hPa | 0 mm | - | 169 W/m² | - |
| 1778143015 | 10.56° C | 76% | 1011.4 hPa | 0 mm | - | 174 W/m² | - |
| 1778142707 | 10.56° C | 73% | 1011.4 hPa | 0 mm | - | 186 W/m² | - |
| 1778142418 | 10.56° C | 73% | 1011.2 hPa | 0 mm | - | 193 W/m² | - |
| 1778142109 | 10.56° C | 76% | 1011.2 hPa | 0 mm | - | 192 W/m² | - |
| 1778141815 | 10.56° C | 73% | 1011.2 hPa | 0 mm | - | 214 W/m² | - |
| 1778141504 | 10.56° C | 72% | 1011.3 hPa | 0 mm | - | 243 W/m² | - |
* Rain since midnight (hover to see other rain measurements)
** Current wind speed in m/s (hover to see current wind gust speed)